View from above orbital plane
|
View from above satellite
|
Ground track
|
The orbit data is extracted from the following two-line orbital elements,
1 22566U 93016B 21059.52268879 .00000307 00000-0 18292-3 0 9999
2 22566 71.0067 108.2362 0012305 241.4302 118.5583 14.14973343442553
Epoch (UTC): | 28 February 2021 12:32:40 |
Eccentricity: | 0.0012305 |
inclination: | 71.0067° |
perigee height: | 833 km |
apogee height: | 851 km |
right ascension of ascending node: | 108.2362° |
argument of perigee: | 241.4302° |
revolutions per day: | 14.14973343 |
mean anomaly at epoch: | 118.5583° |
orbit number at epoch: | 44255 |
The dashed part of the orbit path shows where the satellite is in the earth's shadow,
|
|